Notices

What's New in latest Release from April 7th, 2021:

- Updated Glossary, including Speed of Maximum Gust, and Total Hourly Precipitation

- Updated national and regional climate services offices contacts and prices information

- Addition of station inventory lists for 1981-2010, 1971-2000, and 1961-1990 Normals.

If you haven't already, please take our survey and provide feedback about our website: https://eccc.sondage-survey.ca/f/LanguageSelection.aspx?s=442ca660-fcf1-47c0-95a9-59707d6fd709

Hourly Data Report for November 23, 2019

VICTORIA UNIVERSITY CS
BRITISH COLUMBIA
Current Station Operator: ECCC - MSC

48°27'25.200" N
123°18'16.600" W
60.10 m
1018598
71783
WYJ

Download Data

Hourly Data (November 2019)
Hourly Data Report for November 23, 2019
TIME
LST
Temp Definition
°C
Dew Point Definition
°C
Rel Hum Definition
%
Precip. Amount Definition
mm

Wind Dir Definition
10's deg

Wind Spd Definition
km/h
Visibility Definition
km
Stn Press Definition
kPa
Hmdx Definition


Wind Chill Definition


Weather Definition


00:00 6.8 5.7 93 0.0 15 2   101.94     LegendNANA
01:00 6.7 5.8 94 0.0 16 3   101.89     LegendNANA
02:00 6.8 5.8 94 0.0 15 6   101.77     LegendNANA
03:00 7.0 6.1 94 0.0 19 4   101.86     LegendNANA
04:00 6.8 6.1 95 0.0 16 4   101.88     LegendNANA
05:00 6.8 6.2 96 0.0 16 5   101.83     LegendNANA
06:00 6.9 5.8 93 0.0 16 2   101.79     LegendNANA
07:00 6.3 4.9 90 0.0 15 5   101.81     LegendNANA
08:00 6.2 4.6 89 0.0 15 5   101.80     LegendNANA
09:00 6.5 4.9 90 0.0 12 2   101.78     LegendNANA
10:00 6.6 4.9 89 0.0 13 3   101.79     LegendNANA
11:00 6.7 5.0 89 0.0 13 3   101.76     LegendNANA
12:00 7.3 5.2 86 0.0 13 4   101.68     LegendNANA
13:00 7.1 5.2 88 0.0 13 4   101.59     LegendNANA
14:00 6.8 5.0 89 0.0 16 8   101.54     LegendNANA
15:00 6.7 5.3 91 0.0 14 4   101.47     LegendNANA
16:00 6.7 5.6 92 0.0 14 5   101.39     LegendNANA
17:00 7.4 6.7 95 0.0 14 3   101.36     LegendNANA
18:00 8.1 7.1 94 0.0 15 6   101.24     LegendNANA
19:00 8.4 7.7 95 0.2 17 6   101.10     LegendNANA
20:00 8.4 7.7 96 0.6 15 7   101.02     LegendNANA
21:00 8.6 8.1 97 0.6 16 9   100.94     LegendNANA
22:00 8.6 8.1 97 0.0 15 5   100.94     LegendNANA
23:00 9.7 9.4 98 0.5 21 7   100.96     LegendNANA

Notes on Data Quality.

Legend

  • E = Estimated
  • M = Missing
  • NA = Not Available*
  • [empty] = Indicates an unobserved value
Date modified: